Wind_Speed
36 33 32 32 29 24 24 24 23 22 19 16 13 11 9 8 6 5 4 3 0 1 3 6 9 12 13 12 11 9 8 7 6 6 6 7 7 10 12 15 20 24 27
37 34 33 33 30 26 25 24 25 22 20 18 15 14 12 10 9 8 6 5 3 3 2 5 8 11 10 10 10 8 7 6 4 5 5 6 10 13 18 22 26 29 32
37 35 36 34 30 27 26 25 24 23 21 18 16 15 14 14 12 10 9 8 7 7 5 7 9 12 11 8 6 5 6 6 7 9 9 9 13 18 20 23 26 29 33
35 35 34 33 31 30 29 27 26 25 22 19 16 14 14 14 13 12 11 11 11 10 10 11 12 11 7 5 4 5 4 3 3 4 7 11 14 20 22 26 29 32 35
33 34 35 35 34 34 32 28 29 25 22 19 15 12 13 14 14 13 13 12 13 13 13 12 12 11 7 5 6 7 2 5 6 8 8 10 14 18 22 27 29 32 36
34 31 35 37 36 35 34 31 29 26 22 18 15 13 13 14 13 13 13 14 13 13 12 13 12 9 7 7 6 5 6 6 8 8 10 12 16 21 22 26 31 36 35
35 35 36 38 38 37 37 33 30 28 26 20 17 16 16 16 14 14 15 15 13 13 13 12 9 8 7 9 8 6 7 7 8 10 11 15 19 22 24 29 33 37 40
38 35 35 38 38 39 38 33 33 31 28 24 21 19 18 17 16 17 17 17 13 13 12 10 10 10 10 10 8 6 8 10 12 15 16 20 23 26 26 27 32 38 42
38 35 33 34 38 38 37 34 35 35 31 26 24 21 19 19 19 19 18 19 15 13 11 9 8 8 12 13 10 9 11 13 16 18 22 25 29 31 34 34 37 41 42
36 34 35 35 36 36 36 35 37 37 32 28 23 21 20 20 19 17 18 22 18 17 15 14 13 15 17 19 17 16 15 19 21 23 24 28 32 34 37 39 39 43 48
32 35 36 37 37 38 38 38 37 35 31 26 23 22 21 20 17 16 16 18 21 22 21 20 20 21 23 25 23 22 21 24 25 25 26 29 31 36 37 40 41 43 45
29 35 37 38 38 38 38 37 36 35 31 29 27 24 22 21 20 20 19 19 20 20 21 22 23 23 25 26 25 24 25 26 26 26 27 29 32 36 36 39 40 40 42
28 32 37 37 37 38 38 37 35 33 31 28 27 25 24 25 24 22 22 20 21 24 22 21 22 23 26 29 29 27 27 27 28 28 29 32 35 38 40 40 41 42 44
29 27 32 32 32 35 38 37 36 32 30 28 28 28 30 30 30 29 31 31 29 27 26 29 30 30 31 32 32 32 32 33 33 34 35 37 38 41 42 42 42 43 45
33 29 29 33 33 38 39 40 39 38 37 38 37 36 36 36 36 38 36 35 36 34 35 33 32 31 31 33 35 35 35 35 37 38 41 42 41 42 44 42 43 43 44
38 35 34 32 38 39 43 41 42 40 38 41 44 45 42 42 44 44 43 42 43 42 42 41 41 42 37 35 36 37 36 36 39 41 42 42 42 43 43 43 43 44 46
44 41 45 42 41 53 47 48 45 44 47 50 50 47 51 47 46 48 50 49 48 48 48 50 48 44 40 38 37 36 35 36 38 38 38 39 40 42 42 43 43 45 46
49 46 52 52 49 25 39 43 42 47 53 54 56 53 48 45 48 50 50 50 50 49 48 46 44 43 39 37 37 38 38 39 40 39 39 39 40 42 43 42 43 45 49
49 46 47 44 40 40 39 37 40 48 56 57 57 56 53 47 50 52 54 53 52 50 50 48 44 39 37 37 39 40 40 41 41 42 42 42 43 44 44 44 45 46 47
53 50 45 44 42 40 41 42 43 48 46 45 49 54 53 54 53 54 54 52 48 44 41 40 38 38 39 39 40 41 42 43 44 44 45 46 46 45 45 46 46 47 49
45 46 48 45 46 44 41 42 43 40 37 39 40 42 46 45 44 43 43 42 40 38 38 38 40 41 42 41 41 43 46 47 47 47 47 47 48 47 46 47 47 48 51
46 45 44 41 42 43 42 43 41 38 37 36 38 39 42 43 43 42 42 41 40 39 40 42 43 44 45 46 46 47 49 50 51 51 51 51 50 49 48 50 50 50 51
52 51 51 50 49 49 49 49 49 47 42 38 40 40 42 45 47 48 47 46 46 45 45 47 49 49 49 50 51 52 53 54 53 53 54 55 54 53 52 53 53 52 51
63 62 60 59 57 56 57 56 55 56 52 45 41 43 44 45 47 48 50 52 52 53 52 51 52 54 55 54 55 55 55 57 58 59 60 61 59 56 58 54 56 54 53
72 70 68 67 68 66 66 61 61 61 62 55 49 48 47 48 48 49 51 52 54 54 55 55 56 58 58 59 59 60 62 63 64 64 64 64 64 65 64 64 63 57 57
81 77 76 74 74 74 72 68 65 64 64 64 57 53 50 50 52 54 56 54 52 55 58 60 61 64 65 66 66 67 68 69 71 71 70 69 68 62 62 63 60 57 57
Wind_Direction
200 199 201 199 200 205 202 206 210 212 212 207 207 213 209 215 223 238 254 246 148 18 129 141 144 141 144 147 142 139 126 106 87 73 54 31 19 5 2 350 348 350 351
202 200 197 200 201 200 202 206 206 211 210 211 214 224 226 226 228 236 239 246 241 238 223 153 155 149 158 157 152 143 106 70 46 32 21 14 357 356 352 347 345 346 345
204 203 198 199 200 199 204 210 207 205 211 221 224 225 225 225 222 219 225 233 234 223 209 181 181 169 169 167 151 105 74 38 36 30 14 0 341 339 342 340 342 337 335
207 205 204 202 202 202 205 210 200 203 213 220 221 216 211 210 210 210 218 224 220 215 201 192 191 184 175 177 146 138 103 75 29 6 343 339 334 330 339 339 339 332 332
206 208 206 207 205 203 207 209 200 204 209 210 206 196 193 199 205 214 221 218 214 210 204 201 184 177 177 165 165 189 259 313 332 348 338 331 325 335 337 332 330 330 336
207 205 210 209 207 206 208 208 200 203 207 208 212 206 202 212 216 220 221 213 207 207 203 195 184 190 205 207 230 240 264 294 311 329 339 342 343 339 334 335 330 329 334
210 210 210 209 207 209 211 209 203 205 207 212 220 222 217 223 227 228 221 211 205 211 207 205 209 225 253 259 264 279 287 292 321 346 345 335 337 331 336 335 333 332 337
211 212 213 212 210 213 216 212 208 209 211 214 220 224 226 231 230 232 222 210 214 214 220 228 230 246 260 253 252 283 314 331 326 330 337 335 330 331 333 336 339 344 341
215 214 213 214 215 215 218 216 212 213 214 214 216 219 225 233 233 230 218 211 217 217 218 234 256 278 285 286 285 297 308 314 318 328 333 334 329 331 338 337 343 345 346
219 217 216 216 214 215 216 215 216 216 214 216 217 219 229 237 241 236 220 218 232 242 248 256 267 281 288 288 290 289 304 303 315 324 329 325 325 328 332 336 339 345 348
221 219 217 217 216 215 212 213 216 217 217 218 219 223 226 232 239 244 237 231 235 245 254 261 267 272 280 285 286 295 298 297 304 313 318 321 319 322 325 330 337 341 345
222 216 216 216 215 215 215 214 214 215 218 219 221 227 227 234 244 247 247 242 243 245 247 250 253 260 267 274 279 285 290 293 299 305 313 314 315 316 321 324 330 334 337
218 219 220 219 219 218 216 213 215 218 220 222 225 228 225 233 241 248 253 255 257 251 249 261 265 266 269 270 275 279 283 290 297 303 308 309 312 313 317 322 326 331 336
213 215 218 219 222 221 218 216 216 218 216 222 223 224 226 231 236 242 250 257 264 268 270 266 261 264 267 266 271 277 283 288 295 300 302 305 308 311 314 317 321 329 333
219 208 212 211 214 216 218 216 216 220 217 220 222 226 230 235 240 246 252 256 257 261 267 283 286 290 290 282 281 283 288 293 295 297 298 299 303 306 308 312 318 326 332
223 209 215 216 217 219 218 221 221 221 227 231 229 228 234 240 243 248 254 257 264 267 271 279 282 291 293 285 282 284 288 293 294 293 293 294 297 300 303 308 315 322 328
222 220 215 215 218 221 208 215 225 231 232 233 235 242 237 239 248 253 258 263 266 271 275 278 281 284 286 282 281 282 286 288 290 289 291 292 294 295 299 305 314 317 323
221 223 226 228 246 239 196 214 226 234 238 240 244 250 253 251 253 257 262 267 271 275 279 281 285 283 278 280 280 281 283 285 286 288 289 291 293 295 298 305 311 312 319
226 231 234 242 237 236 235 235 235 238 241 244 245 247 250 257 262 265 270 275 277 278 277 277 275 272 274 276 277 279 281 284 286 288 290 292 294 296 299 304 307 309 315
227 231 231 228 229 232 235 237 237 242 246 250 254 255 254 260 262 263 268 272 273 270 267 267 269 272 274 276 277 280 283 285 287 290 293 295 295 296 297 299 304 306 311
227 226 227 228 231 232 233 234 235 238 246 246 248 251 251 253 256 259 263 266 268 269 270 271 273 274 275 278 281 284 285 287 290 291 292 294 295 295 295 298 301 302 308
235 237 237 240 242 242 241 241 238 243 250 255 256 258 257 257 259 260 260 261 263 266 269 271 273 275 278 280 282 283 285 287 287 289 290 291 292 293 294 296 298 300 305
239 241 243 243 246 248 248 249 246 242 247 253 259 261 261 261 262 263 263 263 264 264 267 270 272 273 276 278 280 282 284 287 288 290 291 292 292 293 292 292 294 297 301
241 242 244 246 245 250 249 251 251 248 252 253 257 260 262 266 267 268 268 268 267 267 267 268 270 274 277 279 282 284 285 287 288 289 290 290 291 292 291 290 291 294 297
244 246 246 247 248 249 252 253 251 250 251 257 258 261 263 263 265 266 265 267 270 271 271 272 273 274 276 277 279 282 284 286 287 288 288 289 290 292 287 289 288 290 293
245 246 248 250 254 255 256 258 258 256 255 259 264 259 261 265 270 270 269 267 270 273 274 276 278 280 280 282 283 284 285 287 288 288 287 288 287 283 284 284 283 288 289
Height
5899 5904 5909 5915 5919 5925 5928 5932 5936 5939 5941 5942 5943 5944 5945 5947 5948 5949 5951 5951 5952 5953 5953 5954 5955 5957 5958 5958 5959 5959 5960 5960 5960 5960 5959 5959 5958 5956 5955 5952 5949 5947 5943
5896 5900 5906 5911 5915 5920 5925 5929 5932 5936 5939 5939 5940 5942 5943 5944 5946 5947 5949 5950 5950 5950 5951 5952 5954 5956 5956 5957 5957 5958 5959 5959 5959 5959 5958 5958 5956 5954 5951 5949 5945 5942 5939
5891 5897 5901 5906 5911 5916 5921 5925 5929 5932 5935 5937 5938 5938 5939 5941 5943 5945 5946 5947 5948 5949 5949 5951 5952 5954 5955 5955 5956 5957 5957 5957 5957 5957 5956 5956 5954 5952 5950 5947 5944 5940 5936
5887 5893 5898 5903 5908 5913 5917 5921 5925 5928 5932 5934 5935 5935 5936 5937 5939 5940 5942 5944 5946 5947 5948 5949 5951 5953 5954 5955 5956 5957 5957 5957 5958 5957 5956 5955 5953 5950 5947 5944 5941 5936 5933
5883 5888 5895 5899 5903 5907 5913 5918 5921 5925 5928 5930 5932 5932 5934 5935 5936 5937 5939 5942 5943 5945 5947 5948 5950 5952 5954 5955 5955 5956 5956 5957 5957 5956 5955 5953 5951 5948 5945 5942 5937 5933 5929
5880 5885 5889 5893 5898 5904 5909 5914 5918 5921 5924 5926 5928 5929 5931 5932 5933 5934 5936 5939 5941 5943 5945 5947 5949 5951 5952 5954 5955 5955 5955 5955 5954 5954 5952 5950 5947 5945 5942 5938 5932 5926 5925
5876 5879 5883 5888 5893 5899 5904 5910 5915 5917 5919 5921 5923 5926 5928 5929 5930 5931 5933 5936 5939 5941 5943 5945 5947 5949 5950 5951 5952 5952 5953 5953 5951 5950 5949 5946 5944 5941 5938 5934 5927 5920 5916
5869 5873 5878 5884 5889 5893 5899 5906 5910 5913 5915 5916 5918 5921 5924 5926 5927 5928 5930 5934 5936 5938 5941 5943 5945 5947 5947 5948 5949 5949 5948 5948 5946 5945 5944 5942 5939 5935 5931 5928 5923 5916 5910
5863 5870 5875 5880 5884 5889 5895 5900 5904 5908 5910 5912 5913 5916 5919 5922 5923 5925 5927 5931 5934 5936 5938 5940 5941 5943 5943 5943 5944 5944 5944 5943 5941 5940 5937 5935 5932 5928 5923 5920 5914 5909 5904
5859 5865 5870 5874 5878 5884 5889 5893 5897 5902 5905 5907 5911 5914 5916 5919 5921 5922 5925 5928 5931 5933 5935 5936 5937 5938 5938 5938 5939 5939 5940 5937 5935 5933 5932 5930 5926 5922 5918 5913 5908 5901 5892
5853 5859 5863 5868 5873 5877 5881 5886 5892 5897 5900 5905 5908 5910 5913 5915 5917 5919 5921 5925 5927 5929 5931 5932 5932 5932 5932 5933 5933 5933 5933 5932 5931 5929 5927 5925 5922 5918 5914 5909 5904 5897 5890
5848 5852 5857 5862 5866 5871 5876 5881 5886 5891 5896 5899 5903 5906 5909 5911 5912 5914 5916 5920 5921 5924 5925 5926 5927 5927 5927 5928 5927 5928 5927 5926 5925 5923 5921 5919 5916 5913 5910 5906 5901 5896 5889
5843 5848 5852 5857 5861 5866 5871 5877 5882 5886 5891 5894 5898 5901 5904 5906 5907 5909 5911 5914 5916 5919 5920 5920 5921 5921 5921 5921 5921 5921 5920 5919 5918 5917 5915 5912 5909 5906 5902 5899 5894 5889 5882
5838 5842 5847 5852 5857 5861 5866 5871 5876 5882 5886 5889 5893 5895 5897 5899 5901 5902 5905 5907 5909 5911 5912 5913 5914 5914 5915 5914 5913 5912 5912 5911 5910 5909 5907 5905 5902 5898 5895 5891 5886 5881 5875
5830 5835 5838 5843 5849 5854 5860 5865 5870 5874 5877 5880 5884 5887 5889 5892 5893 5893 5897 5899 5900 5902 5903 5905 5905 5906 5906 5906 5905 5904 5904 5902 5901 5900 5898 5896 5893 5890 5886 5882 5878 5874 5868
5823 5827 5831 5835 5840 5845 5851 5857 5861 5867 5869 5872 5875 5877 5880 5882 5884 5886 5889 5890 5891 5892 5894 5896 5896 5895 5895 5895 5895 5895 5894 5893 5891 5889 5888 5886 5884 5881 5877 5874 5870 5865 5860
5812 5819 5824 5825 5825 5820 5830 5843 5852 5857 5860 5862 5865 5868 5870 5872 5875 5876 5878 5879 5881 5882 5884 5886 5886 5885 5885 5885 5884 5884 5884 5882 5881 5879 5877 5875 5873 5870 5867 5864 5861 5856 5851
5804 5810 5813 5812 5807 5810 5810 5833 5842 5846 5849 5851 5852 5855 5859 5863 5864 5865 5866 5868 5871 5872 5873 5873 5873 5873 5874 5874 5874 5873 5872 5871 5870 5868 5866 5864 5862 5860 5857 5855 5851 5847 5842
5796 5801 5805 5809 5813 5816 5822 5828 5832 5835 5836 5839 5842 5845 5849 5852 5853 5854 5854 5856 5857 5859 5859 5860 5862 5862 5862 5863 5862 5862 5861 5860 5858 5857 5854 5853 5851 5849 5847 5844 5841 5837 5832
5788 5792 5797 5802 5806 5811 5815 5818 5821 5824 5827 5829 5832 5834 5837 5840 5842 5842 5843 5844 5845 5846 5847 5848 5849 5850 5850 5850 5850 5850 5849 5848 5846 5845 5843 5841 5839 5837 5835 5832 5829 5826 5822
5780 5784 5789 5792 5795 5799 5802 5806 5809 5812 5815 5818 5821 5823 5825 5828 5830 5831 5832 5833 5833 5834 5835 5836 5837 5838 5838 5839 5839 5838 5836 5835 5834 5832 5830 5828 5826 5824 5822 5820 5817 5814 5810
5767 5771 5776 5780 5784 5787 5790 5794 5797 5800 5804 5807 5809 5812 5814 5816 5818 5818 5819 5821 5822 5822 5823 5823 5824 5824 5825 5824 5824 5823 5822 5821 5820 5818 5816 5814 5813 5811 5808 5806 5804 5801 5797
5753 5758 5763 5767 5771 5775 5779 5782 5786 5789 5791 5793 5796 5798 5800 5802 5804 5805 5806 5807 5808 5809 5810 5809 5809 5809 5809 5809 5808 5807 5806 5805 5804 5803 5801 5799 5797 5795 5793 5791 5789 5786 5783
5738 5742 5747 5752 5756 5761 5765 5768 5771 5775 5777 5779 5781 5783 5786 5787 5789 5791 5792 5792 5793 5794 5795 5796 5795 5794 5794 5793 5792 5792 5790 5788 5787 5786 5784 5782 5781 5779 5777 5775 5773 5771 5768
5720 5725 5730 5734 5739 5743 5748 5751 5754 5757 5760 5762 5765 5768 5770 5772 5773 5774 5775 5776 5777 5777 5777 5777 5777 5778 5778 5778 5777 5775 5773 5771 5770 5768 5767 5765 5763 5761 5759 5758 5755 5754 5752
5701 5705 5711 5717 5722 5725 5728 5733 5737 5740 5743 5746 5747 5751 5752 5754 5755 5756 5756 5757 5758 5759 5759 5759 5759 5758 5759 5758 5758 5756 5754 5752 5750 5748 5747 5745 5743 5741 5739 5738 5737 5736 5734